Location: Namasale
(1.5000°N, 32.6167°E)
Time: 19:18:43
(UTC+00:00)

Cosmos 1190 Rocket - Pass Details

Date: 09 April 2020
Orbit: 757 x 779 km, 74.1° (Epoch: 27 May)

Event Time Altitude Azimuth Distance (km) Brightness Sun altitude
Rises 16:44:10 0° 198° (SSW) 3,257 7.4 -13.0°
Reaches altitude 10° 16:46:34 10° 201° (SSW) 2,328 6.7 -13.6°
Maximum altitude 16:51:48 65° 282° (WNW) 854 4.5 -14.8°
Drops below altitude 10° 16:57:02 10° 4° (N) 2,319 6.6 -16.1°
Sets 16:59:26 0° 7° (N) 3,242 7.3 -16.7°
